Portland Hillsboro, OR

5:19 AM PDT on June 28, 2017 (GMT -0700)
Portland-Hillsboro

Weather History for KHIO - November, 2011

Change the Weather History Date:

Monday, November 14, 2011

  Actual Average Record
Temperature  
Mean Temperature 42 °F 45 °F  
Max Temperature 49 °F 53 °F 65 °F (2001)
Min Temperature 34 °F 37 °F 12 °F (1955)
Degree Days  
Heating Degree Days 23 20  
Month to date heating degree days 314 263  
Since 1 July heating degree days 880 944  
Cooling Degree Days 0 0  
Month to date cooling degree days 0 0  
Year to date cooling degree days 175 198  
Moisture  
Dew Point 41 °F    
Average Humidity 92    
Maximum Humidity 100    
Minimum Humidity 83    
Precipitation  
Precipitation 0.05 in 0.20 in 1.35 in (1948)
Month to date precipitation 0.85 2.89  
Year to date precipitation 23.48 29.58  
Snow  
Snow 0.00 in - - ()
Month to date snowfall 0.0  
Since 1 July snowfall 0.0  
Since 1 September snowfall 0.0  
Snow Depth 0.00 in    
Sea Level Pressure  
Sea Level Pressure 30.10 in    
Wind  
Wind Speed 2 mph (NW)    
Max Wind Speed 10 mph    
Max Gust Speed 14 mph    
Visibility 5 miles    
Events Fog , Rain    
T = Trace of Precipitation, MM = Missing Value Source: NWS Daily Summary

Daily Weather History Graph

Daily Weather History Graph

Search for Another Location

Airport or City:

Trip Planner

Search our weather history database for the weather conditions in past years. The results will help you decide how hot, cold, wet, or windy it might be!

Date:

Astronomy

Nov. 14, 2011 Rise Set
Actual Time 7:09 AM PST 4:42 PM PST
Civil Twilight 6:37 AM PST 5:14 PM PST
Nautical Twilight 6:01 AM PST 5:50 PM PST
Astronomical Twilight 5:26 AM PST 6:25 PM PST
Moon 7:51 PM PST (11/14) 10:35 AM PST (11/14)
Length of Visible Light 10h 37m
Length of Day
9h 33m
Waning Gibbous, 86% of the Moon is Illuminated
Nov 14
Waning Gibbous
Nov 18
Last Quarter
Nov 24
New
Dec 2
First Quarter
Dec 10
Full

Hourly Weather History & Observations

Time (PST) Temp. Windchill Dew Point Humidity Pressure Visibility Wind Dir Wind Speed Gust Speed Precip Events Conditions
12:53 AM 45.0 °F - 44.1 °F 97% 29.97 in 7.0 mi Calm Calm - N/A   Overcast
2:53 AM 44.1 °F - 43.0 °F 96% 29.98 in 9.0 mi Calm Calm - 0.00 in   Overcast
3:53 AM 44.1 °F - 43.0 °F 96% 30.00 in 7.0 mi Calm Calm - 0.00 in Rain Light Rain
5:53 AM 43.0 °F 41.3 °F 42.1 °F 97% 30.01 in 7.0 mi North 3.5 mph - N/A   Overcast
6:53 AM 43.0 °F - 42.1 °F 97% 30.02 in 5.0 mi Calm Calm - N/A   Overcast
7:53 AM 44.1 °F - 43.0 °F 96% 30.03 in 6.0 mi Calm Calm - 0.01 in   Overcast
8:53 AM 45.0 °F - 44.1 °F 97% 30.05 in 5.0 mi Calm Calm - N/A   Overcast
9:24 AM 44.6 °F 40.2 °F 44.6 °F 100% 30.06 in 3.0 mi NNW 8.1 mph - 0.00 in Rain Light Rain
9:53 AM 46.0 °F - 45.0 °F 96% 30.06 in 5.0 mi Calm Calm - 0.00 in   Mostly Cloudy
10:53 AM 48.0 °F - 46.0 °F 93% 30.07 in 6.0 mi SSE 4.6 mph - N/A   Mostly Cloudy
11:53 AM 48.9 °F - 46.0 °F 90% 30.07 in 5.0 mi WSW 4.6 mph - 0.01 in Rain Light Rain
12:53 PM 48.9 °F - 45.0 °F 86% 30.07 in 4.0 mi Calm Calm - 0.00 in Rain Light Rain
1:13 PM 48.2 °F - 46.4 °F 93% 30.06 in 4.0 mi Calm Calm - 0.00 in Rain Light Rain
1:46 PM 48.2 °F - 46.4 °F 93% 30.07 in 6.0 mi Calm Calm - 0.00 in Rain Light Rain
1:53 PM 48.9 °F - 46.0 °F 90% 30.07 in 5.0 mi Calm Calm - 0.00 in Rain Light Rain
2:20 PM 48.2 °F - 46.4 °F 93% 30.07 in 7.0 mi Calm Calm - 0.00 in   Overcast
2:53 PM 48.9 °F - 46.0 °F 90% 30.07 in 10.0 mi Calm Calm - 0.00 in   Overcast
3:53 PM 46.9 °F - 43.0 °F 86% 30.09 in 5.0 mi NNW 6.9 mph - 0.01 in Rain Light Rain
4:21 PM 46.4 °F 45.2 °F 42.8 °F 87% 30.08 in 10.0 mi North 3.5 mph - 0.00 in   Overcast
5:53 PM 45.0 °F 42.6 °F 39.9 °F 82% 30.12 in 10.0 mi NW 4.6 mph - N/A   Overcast
6:53 PM 45.0 °F - 39.9 °F 82% 30.13 in 10.0 mi Calm Calm - 0.01 in   Overcast
7:53 PM 43.0 °F - 41.0 °F 93% 30.14 in 10.0 mi Calm Calm - N/A   Mostly Cloudy
8:53 PM 41.0 °F - 39.0 °F 93% 30.15 in 10.0 mi Calm Calm - 0.01 in   Scattered Clouds
9:53 PM 39.0 °F - 37.9 °F 96% 30.16 in 5.0 mi Calm Calm - N/A   Clear
10:02 PM 37.4 °F - 37.4 °F 100% 30.16 in 1.5 mi Calm Calm - N/A   Clear
10:05 PM 37.4 °F - 37.4 °F 100% 30.16 in 0.8 mi Calm Calm - N/A   Mist
10:16 PM 35.6 °F 31.7 °F 35.6 °F 100% 30.16 in 0.5 mi NW 4.6 mph - N/A Fog Fog
10:26 PM 35.6 °F - 35.6 °F 100% 30.16 in 0.5 mi Calm Calm - N/A Fog Fog
10:33 PM 37.4 °F - 35.6 °F 93% 30.16 in 1.0 mi Calm Calm - N/A   Mist
10:43 PM 37.4 °F - 35.6 °F 93% 30.16 in 0.5 mi Calm Calm - N/A Fog Fog
10:48 PM 35.6 °F - 35.6 °F 100% 30.16 in 0.2 mi Calm Calm - N/A Fog Fog
10:53 PM 36.0 °F 33.3 °F 35.1 °F 97% 30.17 in 0.2 mi WNW 3.5 mph - N/A Fog Fog
11:04 PM 35.6 °F - 33.8 °F 93% 30.17 in 0.5 mi Calm Calm - N/A Fog Fog
11:53 PM 35.1 °F - 34.0 °F 96% 30.19 in 1.2 mi Calm Calm - N/A   Scattered Clouds